Weather History for Martha's Vineyard, MA

Change the Weather History Date:

Tuesday, April 1, 2014

  Actual Average Record
Temperature  
Mean Temperature 42 °F -  
Max Temperature 46 °F 49 °F 71 °F (1981)
Min Temperature 37 °F 34 °F 17 °F (1964)
Degree Days  
Heating Degree Days 24    
Moisture  
Dew Point 27 °F    
Average Humidity 62    
Maximum Humidity 82    
Minimum Humidity 44    
Precipitation  
Precipitation 0.01 in - - ()
Sea Level Pressure  
Sea Level Pressure 30.01 in    
Wind  
Wind Speed 17 mph (North)    
Max Wind Speed 25 mph    
Max Gust Speed 37 mph    
Visibility 10 miles    
Events Snow    
Averages and records for this station are not official NWS values.
T = Trace of Precipitation, MM = Missing Value Source: NWS Daily Summary

Daily Weather History Graph

Daily Weather History Graph

Search for Another Location

Airport:

Trip Planner

Search our weather history database for the weather conditions in past years. The results will help you decide how hot, cold, wet, or windy it might be!

Date:

Astronomy

Apr. 01, 2014 Rise Set
Actual Time 6:25 AM EDT 7:07 PM EDT
Civil Twilight 5:57 AM EDT 7:35 PM EDT
Nautical Twilight 5:24 AM EDT 8:08 PM EDT
Astronomical Twilight 4:50 AM EDT 8:42 PM EDT
Moon 7:24 AM EDT (4/1) 9:28 PM EDT (4/1)
Length of Visible Light 13h 37m
Length of Day
12h 42m
Waxing Crescent, 4% of the Moon is Illuminated
Apr 1
Waxing Crescent
Apr 7
First Quarter
Apr 15
Full
Apr 22
Last Quarter
Apr 29
New

Hourly Weather History & Observations

Time (EDT) Temp. Windchill Dew Point Humidity Pressure Visibility Wind Dir Wind Speed Gust Speed Precip Events Conditions
12:43 AM 37.0 °F 25.4 °F 28.9 °F 73% 29.95 in 10.0 mi North 25.3 mph 36.8 mph 0.00 in   Overcast
12:53 AM 37.0 °F 26.7 °F 28.9 °F 73% 29.95 in 10.0 mi North 19.6 mph 33.4 mph 0.00 in   Overcast
1:18 AM 37.0 °F 25.4 °F 30.0 °F 76% 29.95 in 6.0 mi NNE 25.3 mph 35.7 mph 0.00 in Snow Light Snow
1:53 AM 37.0 °F 28.1 °F 32.0 °F 82% 29.96 in 10.0 mi North 15.0 mph 26.5 mph 0.01 in   Overcast
2:53 AM 37.0 °F 28.1 °F 30.0 °F 76% 29.96 in 10.0 mi North 15.0 mph 25.3 mph 0.00 in   Overcast
3:09 AM 37.0 °F 28.1 °F 30.0 °F 76% 29.96 in 10.0 mi North 15.0 mph 25.3 mph 0.00 in   Overcast
3:53 AM 37.9 °F 28.2 °F 27.0 °F 65% 29.96 in 10.0 mi North 18.4 mph 29.9 mph 0.00 in   Overcast
4:01 AM 37.9 °F 27.9 °F 27.0 °F 65% 29.96 in 10.0 mi North 19.6 mph 27.6 mph N/A   Overcast
4:53 AM 37.9 °F 28.9 °F 27.0 °F 65% 29.97 in 10.0 mi North 16.1 mph 27.6 mph N/A   Overcast
5:09 AM 37.9 °F 28.9 °F 27.0 °F 65% 29.97 in 10.0 mi North 16.1 mph 26.5 mph N/A   Overcast
5:53 AM 37.9 °F 30.9 °F 27.0 °F 65% 29.98 in 10.0 mi North 10.4 mph 23.0 mph N/A   Overcast
6:53 AM 37.9 °F 28.2 °F 27.0 °F 65% 29.99 in 10.0 mi North 18.4 mph 24.2 mph N/A   Overcast
7:53 AM 37.9 °F 29.6 °F 27.0 °F 65% 30.01 in 10.0 mi North 13.8 mph 20.7 mph N/A   Overcast
8:53 AM 39.0 °F 31.8 °F 28.0 °F 65% 30.03 in 10.0 mi North 11.5 mph 24.2 mph N/A   Overcast
9:53 AM 39.0 °F 31.4 °F 28.0 °F 65% 30.03 in 10.0 mi North 12.7 mph 25.3 mph N/A   Overcast
10:53 AM 39.9 °F 32.9 °F 28.0 °F 63% 30.03 in 10.0 mi North 11.5 mph 20.7 mph N/A   Overcast
11:53 AM 41.0 °F 33.5 °F 28.0 °F 60% 30.04 in 10.0 mi North 13.8 mph 23.0 mph N/A   Overcast
12:53 PM 42.1 °F 33.9 °F 28.0 °F 58% 30.04 in 10.0 mi NNE 17.3 mph 24.2 mph N/A   Overcast
1:53 PM 45.0 °F 37.4 °F 28.0 °F 52% 30.04 in 10.0 mi North 18.4 mph 25.3 mph N/A   Overcast
2:53 PM 46.0 °F 37.8 °F 26.1 °F 46% 30.03 in 10.0 mi NNE 23.0 mph 29.9 mph N/A   Clear
3:53 PM 46.0 °F 38.5 °F 25.0 °F 44% 30.04 in 10.0 mi NNE 19.6 mph 25.3 mph N/A   Clear
4:53 PM 46.0 °F 39.3 °F 25.0 °F 44% 30.04 in 10.0 mi North 16.1 mph - N/A   Clear
5:53 PM 46.0 °F 40.2 °F 25.0 °F 44% 30.06 in 10.0 mi NNE 12.7 mph - N/A   Clear
6:53 PM 42.1 °F 37.7 °F 25.0 °F 51% 30.05 in 10.0 mi NNE 6.9 mph - N/A   Clear
7:53 PM 39.9 °F 35.1 °F 26.1 °F 58% 30.04 in 10.0 mi NE 6.9 mph - N/A   Clear
8:53 PM 39.0 °F 36.8 °F 26.1 °F 60% 30.06 in 10.0 mi NNE 3.5 mph - N/A   Clear
9:53 PM 37.0 °F 32.4 °F 25.0 °F 62% 30.09 in 10.0 mi NNW 5.8 mph - N/A   Clear
10:53 PM 37.0 °F 33.3 °F 25.0 °F 62% 30.09 in 10.0 mi NW 4.6 mph - N/A   Clear
11:53 PM 39.0 °F 33.4 °F 28.9 °F 67% 30.11 in 10.0 mi WNW 8.1 mph - N/A   Clear